Location: Unspecified
(0.0000°N, 0.0000°E)
Time: 13:20:01
(UTC+00:00)

Envisat - Pass Details

Date: 18 September 2019
Orbit: 764 x 766 km, 98.1° (Epoch: 18 September)

Event Time Altitude Azimuth Distance (km) Brightness Sun altitude
Rises 18:44:07 0° 173° (S) 3,230 6.1 -12.5°
Reaches altitude 10° 18:46:26 10° 175° (S) 2,302 5.4 -13.1°
Maximum altitude 18:51:29 70° 258° (WSW) 810 3.3 -14.3°
Drops below altitude 10° 18:56:31 10° 342° (NNW) 2,291 5.7 -15.6°
Sets 18:58:49 0° 344° (NNW) 3,214 6.5 -16.2°
